Andrews, TX

10:56 PM CDT on July 27, 2017 (GMT -0500)
Andrews

Weather History for KE11 - December, 2012

Change the Weather History Date:

Friday, December 7, 2012

  Actual Average (KMAF) Record (KMAF)
Temperature  
Mean Temperature 50 °F -  
Max Temperature 68 °F 57 °F 79 °F (1966)
Min Temperature 32 °F 31 °F 13 °F (2005)
Degree Days  
Heating Degree Days 15    
Moisture  
Dew Point 28 °F    
Average Humidity 44    
Maximum Humidity 66    
Minimum Humidity 22    
Precipitation  
Precipitation 0.00 in - - ()
Sea Level Pressure  
Sea Level Pressure 29.88 in    
Wind  
Wind Speed 5 mph (ENE)    
Max Wind Speed 9 mph    
Max Gust Speed -    
Visibility 10 miles    
Events      
Averages and records for this station are not official NWS values.
T = Trace of Precipitation, MM = Missing Value Source: NWS Daily Summary

Daily Weather History Graph

Daily Weather History Graph

Search for Another Location

Airport or City:

Trip Planner

Search our weather history database for the weather conditions in past years. The results will help you decide how hot, cold, wet, or windy it might be!

Date:

Astronomy

Dec. 07, 2012 Rise Set
Actual Time 7:38 AM CST 5:44 PM CST
Civil Twilight 7:11 AM CST 6:11 PM CST
Nautical Twilight 6:41 AM CST 6:42 PM CST
Astronomical Twilight 6:11 AM CST 7:12 PM CST
Moon 1:18 AM CST (12/7) 1:26 PM CST (12/7)
Length of Visible Light 11h 00m
Length of Day
10h 06m
Last Quarter, 38% of the Moon is Illuminated
Dec 7
Last Quarter
Dec 13
New
Dec 19
First Quarter
Dec 28
Full
Jan 4
Last Quarter

Hourly Weather History & Observations

Time (CST) Temp. Windchill Dew Point Humidity Pressure Visibility Wind Dir Wind Speed Gust Speed Precip Events Conditions
12:15 AM 48.2 °F - 26.4 °F 43% 29.89 in 10.0 mi East 5.8 mph - N/A   Clear
12:35 AM 48.9 °F - 26.4 °F 42% 29.89 in 10.0 mi ENE 5.8 mph - N/A   Clear
12:55 AM 47.1 °F - 26.6 °F 45% 29.89 in 10.0 mi East 6.9 mph - N/A   Clear
1:15 AM 46.8 °F - 26.2 °F 45% 29.87 in 10.0 mi East 6.9 mph - N/A   Clear
1:35 AM 46.8 °F - 26.2 °F 45% 29.87 in 10.0 mi ENE 5.8 mph - N/A   Clear
1:55 AM 45.5 °F 43.2 °F 25.9 °F 46% 29.87 in 10.0 mi NE 4.6 mph - N/A   Clear
2:15 AM 44.1 °F 42.5 °F 25.7 °F 49% 29.87 in 10.0 mi NE 3.5 mph - N/A   Clear
2:35 AM 43.0 °F 40.3 °F 25.7 °F 51% 29.87 in 10.0 mi NE 4.6 mph - N/A   Clear
2:55 AM 42.4 °F 40.7 °F 25.7 °F 52% 29.87 in 10.0 mi ENE 3.5 mph - N/A   Clear
3:15 AM 42.8 °F 41.1 °F 25.7 °F 51% 29.87 in 10.0 mi ENE 3.5 mph - N/A   Clear
3:35 AM 42.1 °F 37.7 °F 25.5 °F 52% 29.87 in 10.0 mi NE 6.9 mph - N/A   Clear
3:55 AM 42.3 °F 38.6 °F 25.7 °F 52% 29.87 in 10.0 mi ENE 5.8 mph - N/A   Clear
4:15 AM 41.9 °F 38.2 °F 25.3 °F 52% 29.87 in 10.0 mi ENE 5.8 mph - N/A   Clear
4:35 AM 40.5 °F 37.3 °F 24.8 °F 54% 29.87 in 10.0 mi ENE 4.6 mph - N/A   Clear
4:55 AM 39.2 °F - 24.8 °F 56% 29.87 in 10.0 mi Calm Calm - N/A   Clear
5:15 AM 38.3 °F 35.9 °F 24.4 °F 57% 29.88 in 10.0 mi North 3.5 mph - N/A   Clear
5:35 AM 36.1 °F 32.3 °F 23.9 °F 61% 29.88 in 10.0 mi North 4.6 mph - N/A   Clear
5:55 AM 35.8 °F 31.9 °F 23.9 °F 62% 29.89 in 10.0 mi North 4.6 mph - N/A   Clear
6:15 AM 36.1 °F 31.4 °F 23.9 °F 61% 29.89 in 10.0 mi North 5.8 mph - N/A   Clear
6:35 AM 36.9 °F 31.4 °F 23.9 °F 59% 29.90 in 10.0 mi North 6.9 mph - N/A   Clear
6:55 AM 35.8 °F 31.9 °F 23.7 °F 62% 29.89 in 10.0 mi North 4.6 mph - N/A   Clear
7:15 AM 34.2 °F 29.0 °F 23.0 °F 64% 29.90 in 10.0 mi North 5.8 mph - N/A   Clear
7:35 AM 33.4 °F 27.3 °F 23.0 °F 66% 29.91 in 10.0 mi North 6.9 mph - N/A   Clear
7:55 AM 32.9 °F 28.5 °F 22.8 °F 66% 29.91 in 10.0 mi North 4.6 mph - N/A   Clear
8:15 AM 35.4 °F 31.5 °F 23.7 °F 62% 29.92 in 10.0 mi North 4.6 mph - N/A   Clear
8:35 AM 38.7 °F 34.3 °F 24.4 °F 57% 29.92 in 10.0 mi NNE 5.8 mph - N/A   Clear
8:55 AM 41.5 °F 35.9 °F 25.3 °F 53% 29.93 in 10.0 mi NNE 9.2 mph - N/A   Clear
9:15 AM 42.6 °F 39.0 °F 25.5 °F 51% 29.93 in 10.0 mi NNE 5.8 mph - N/A   Clear
9:35 AM 44.1 °F 40.8 °F 26.1 °F 49% 29.93 in 10.0 mi NE 5.8 mph - N/A   Clear
9:55 AM 46.8 °F - 27.9 °F 48% 29.93 in 10.0 mi NE 5.8 mph - N/A   Clear
10:15 AM 48.6 °F - 30.0 °F 49% 29.94 in 10.0 mi East 5.8 mph - N/A   Clear
10:35 AM 50.2 °F - 30.4 °F 47% 29.93 in 10.0 mi East 5.8 mph - N/A   Clear
10:55 AM 51.4 °F - 31.8 °F 47% 29.92 in 10.0 mi East 5.8 mph - N/A   Clear
11:15 AM 52.3 °F - 31.8 °F 46% 29.93 in 10.0 mi NE 4.6 mph - N/A   Clear
11:35 AM 53.8 °F - 31.8 °F 43% 29.92 in 10.0 mi Calm Calm - N/A   Clear
11:55 AM 54.5 °F - 32.0 °F 42% 29.91 in 10.0 mi Calm Calm - N/A   Clear
12:15 PM 55.0 °F - 32.2 °F 42% 29.91 in 10.0 mi Calm Calm - N/A   Clear
12:35 PM 57.4 °F - 32.4 °F 39% 29.90 in 10.0 mi Calm Calm - N/A   Clear
12:55 PM 58.1 °F - 32.5 °F 38% 29.89 in 10.0 mi Calm Calm - N/A   Clear
1:15 PM 59.5 °F - 32.0 °F 35% 29.87 in 10.0 mi Calm Calm - N/A   Clear
1:35 PM 60.6 °F - 32.0 °F 34% 29.87 in 10.0 mi Calm Calm - N/A   Clear
1:55 PM 62.1 °F - 32.0 °F 32% 29.86 in 10.0 mi Calm Calm - N/A   Clear
2:15 PM 63.0 °F - 32.0 °F 31% 29.85 in 10.0 mi Calm Calm - N/A   Clear
2:35 PM 64.8 °F - 31.6 °F 29% 29.84 in 10.0 mi Calm Calm - N/A   Clear
2:55 PM 65.1 °F - 30.4 °F 27% 29.84 in 10.0 mi Calm Calm - N/A   Clear
3:15 PM 65.8 °F - 30.2 °F 26% 29.84 in 10.0 mi Calm Calm - N/A   Clear
3:35 PM 66.4 °F - 29.8 °F 25% 29.84 in 10.0 mi Calm Calm - N/A   Clear
3:55 PM 66.7 °F - 29.5 °F 25% 29.84 in 10.0 mi Calm Calm - N/A   Clear
4:15 PM 67.3 °F - 29.1 °F 24% 29.84 in 10.0 mi Calm Calm - N/A   Clear
4:35 PM 67.6 °F - 29.1 °F 24% 29.84 in 10.0 mi Calm Calm - N/A   Clear
4:55 PM 68.0 °F - 28.8 °F 23% 29.84 in 10.0 mi Calm Calm - N/A   Clear
5:15 PM 67.3 °F - 27.0 °F 22% 29.84 in 10.0 mi WNW 3.5 mph - N/A   Clear
5:35 PM 64.9 °F - 28.0 °F 25% 29.84 in 10.0 mi SSE 3.5 mph - N/A   Clear
5:55 PM 63.0 °F - 28.6 °F 27% 29.84 in 10.0 mi SSE 4.6 mph - N/A   Clear
6:15 PM 61.3 °F - 28.2 °F 29% 29.84 in 10.0 mi South 4.6 mph - N/A   Clear
6:35 PM 58.1 °F - 28.8 °F 33% 29.84 in 10.0 mi South 5.8 mph - N/A   Clear
6:55 PM 54.5 °F - 27.5 °F 35% 29.85 in 10.0 mi South 4.6 mph - N/A   Clear
7:15 PM 53.1 °F - 26.6 °F 36% 29.85 in 10.0 mi Calm Calm - N/A   Clear
7:35 PM 54.3 °F - 27.3 °F 35% 29.85 in 10.0 mi South 6.9 mph - N/A   Clear
7:55 PM 54.1 °F - 29.1 °F 38% 29.87 in 10.0 mi South 4.6 mph - N/A   Clear
8:35 PM 52.9 °F - 30.2 °F 42% 29.87 in 10.0 mi South 3.5 mph - N/A   Clear
8:55 PM 52.2 °F - 30.6 °F 44% 29.87 in 10.0 mi SSW 5.8 mph - N/A   Clear
9:15 PM 51.6 °F - 30.7 °F 45% 29.89 in 10.0 mi SSW 4.6 mph - N/A   Clear
9:35 PM 50.7 °F - 30.4 °F 46% 29.89 in 10.0 mi SSW 5.8 mph - N/A   Clear
9:55 PM 50.9 °F - 30.6 °F 46% 29.89 in 10.0 mi South 5.8 mph - N/A   Clear
10:15 PM 51.1 °F - 30.9 °F 46% 29.89 in 10.0 mi SSW 8.1 mph - N/A   Clear
10:35 PM 52.0 °F - 31.1 °F 45% 29.90 in 10.0 mi South 8.1 mph - N/A   Clear
10:55 PM 50.9 °F - 31.1 °F 47% 29.89 in 10.0 mi SSW 5.8 mph - N/A   Clear
11:15 PM 50.2 °F - 30.9 °F 48% 29.89 in 10.0 mi SSW 6.9 mph - N/A   Clear
11:35 PM 49.6 °F - 30.7 °F 48% 29.89 in 10.0 mi SSW 6.9 mph - N/A   Clear
11:55 PM 48.7 °F - 30.7 °F 50% 29.89 in 10.0 mi SSW 8.1 mph - N/A   Clear